TimeCST,TemperatureF,Dew PointF,Humidity,Sea Level PressureIn,VisibilityMPH,Wind Direction,Wind SpeedMPH,Gust SpeedMPH,PrecipitationIn,Events,Conditions,WindDirDegrees,DateUTC
12:15 AM,33.8,28.4,81,29.85,5.0,NNW,12.7,-,N/A,Snow,Light Snow,340,2013-02-28 06:15:00
12:35 AM,33.8,28.4,81,29.86,5.0,NNW,12.7,-,N/A,Snow,Light Snow,340,2013-02-28 06:35:00
12:55 AM,33.8,28.4,81,29.86,7.0,NNW,13.8,-,N/A,Snow,Light Snow,340,2013-02-28 06:55:00
1:15 AM,33.8,28.4,81,29.87,7.0,NNW,12.7,-,N/A,Snow,Light Snow,340,2013-02-28 07:15:00
1:35 AM,33.8,28.4,81,29.87,7.0,NNW,12.7,-,N/A,Snow,Light Snow,340,2013-02-28 07:35:00
1:55 AM,33.8,28.4,81,29.88,7.0,NNW,11.5,-,N/A,,Overcast,340,2013-02-28 07:55:00
2:15 AM,33.8,28.4,81,29.88,4.0,NNW,11.5,-,N/A,Snow,Light Snow,340,2013-02-28 08:15:00
2:35 AM,32.0,26.6,80,29.88,5.0,NNW,11.5,-,N/A,Snow,Light Snow,330,2013-02-28 08:35:00
2:55 AM,33.8,26.6,75,29.88,7.0,NNW,10.4,-,N/A,Snow,Light Snow,330,2013-02-28 08:55:00
3:15 AM,33.8,26.6,75,29.89,4.0,NNW,10.4,-,N/A,Snow,Light Snow,340,2013-02-28 09:15:00
3:35 AM,32.0,26.6,80,29.89,7.0,NNW,10.4,-,N/A,Snow,Light Snow,340,2013-02-28 09:35:00
3:55 AM,33.8,28.4,81,29.90,7.0,NNW,11.5,17.3,N/A,Snow,Light Snow,340,2013-02-28 09:55:00
4:15 AM,33.8,26.6,75,29.91,10.0,NNW,11.5,-,N/A,Snow,Light Snow,340,2013-02-28 10:15:00
4:35 AM,33.8,26.6,75,29.91,4.0,NNW,13.8,-,N/A,Snow,Light Snow,330,2013-02-28 10:35:00
4:55 AM,32.0,26.6,80,29.92,4.0,NNW,11.5,-,N/A,Snow,Light Snow,330,2013-02-28 10:55:00
5:15 AM,32.0,26.6,80,29.94,4.0,NNW,8.1,-,N/A,Snow,Light Snow,330,2013-02-28 11:15:00
5:35 AM,32.0,26.6,80,29.94,3.0,NNW,10.4,-,N/A,Snow,Light Snow,330,2013-02-28 11:35:00
5:55 AM,32.0,26.6,80,29.95,7.0,NNW,10.4,-,N/A,Snow,Light Snow,330,2013-02-28 11:55:00
6:15 AM,32.0,26.6,80,29.95,7.0,NNW,10.4,-,N/A,Snow,Light Snow,330,2013-02-28 12:15:00
6:35 AM,30.2,26.6,86,29.96,7.0,NNW,11.5,-,N/A,Snow,Light Snow,340,2013-02-28 12:35:00
6:55 AM,32.0,26.6,80,29.96,7.0,NNW,12.7,17.3,N/A,,Overcast,340,2013-02-28 12:55:00
7:15 AM,32.0,26.6,80,29.97,10.0,NNW,11.5,-,N/A,,Overcast,340,2013-02-28 13:15:00
7:35 AM,33.8,26.6,75,29.98,10.0,NNW,11.5,18.4,N/A,,Overcast,340,2013-02-28 13:35:00
7:55 AM,33.8,26.6,75,29.99,10.0,NNW,12.7,-,N/A,,Overcast,340,2013-02-28 13:55:00
8:15 AM,33.8,26.6,75,29.99,7.0,NNW,12.7,-,N/A,,Mostly Cloudy,340,2013-02-28 14:15:00
8:35 AM,33.8,26.6,75,30.00,10.0,NNW,10.4,-,N/A,,Mostly Cloudy,340,2013-02-28 14:35:00
8:55 AM,33.8,26.6,75,30.00,10.0,NNW,12.7,-,N/A,,Scattered Clouds,340,2013-02-28 14:55:00
9:15 AM,33.8,26.6,75,30.01,10.0,NNW,10.4,-,N/A,,Scattered Clouds,340,2013-02-28 15:15:00
9:35 AM,33.8,26.6,75,30.01,10.0,NNW,12.7,-,N/A,,Mostly Cloudy,340,2013-02-28 15:35:00
9:55 AM,33.8,26.6,75,30.02,10.0,NNW,13.8,-,N/A,,Mostly Cloudy,340,2013-02-28 15:55:00
10:15 AM,35.6,26.6,70,30.02,7.0,NNW,12.7,-,N/A,,Overcast,330,2013-02-28 16:15:00
10:35 AM,35.6,28.4,75,30.03,10.0,NNW,13.8,-,N/A,,Overcast,340,2013-02-28 16:35:00
10:55 AM,35.6,28.4,75,30.03,10.0,NNW,13.8,18.4,N/A,,Overcast,340,2013-02-28 16:55:00
11:15 AM,35.6,26.6,70,30.03,10.0,North,17.3,-,N/A,Snow,Light Snow,350,2013-02-28 17:15:00
11:35 AM,35.6,26.6,70,30.03,7.0,North,15.0,-,N/A,Snow,Light Snow,350,2013-02-28 17:35:00
11:55 AM,35.6,26.6,70,30.03,10.0,NNW,15.0,-,N/A,,Overcast,340,2013-02-28 17:55:00
12:15 PM,35.6,26.6,70,30.04,10.0,NNW,15.0,-,N/A,,Overcast,330,2013-02-28 18:15:00
12:35 PM,35.6,28.4,75,30.04,10.0,NNW,13.8,-,N/A,Snow,Light Snow,340,2013-02-28 18:35:00
12:55 PM,35.6,26.6,70,30.04,10.0,NNW,13.8,-,N/A,,Overcast,340,2013-02-28 18:55:00
1:15 PM,35.6,26.6,70,30.04,10.0,NNW,11.5,-,N/A,,Overcast,340,2013-02-28 19:15:00
1:35 PM,35.6,26.6,70,30.04,10.0,North,10.4,-,N/A,,Overcast,350,2013-02-28 19:35:00
1:55 PM,35.6,26.6,70,30.04,10.0,North,11.5,-,N/A,,Overcast,350,2013-02-28 19:55:00
2:15 PM,35.6,26.6,70,30.04,10.0,North,10.4,-,N/A,,Overcast,350,2013-02-28 20:15:00
2:35 PM,35.6,26.6,70,30.04,10.0,North,11.5,-,N/A,,Overcast,350,2013-02-28 20:35:00
2:55 PM,35.6,26.6,70,30.04,10.0,NNW,10.4,-,N/A,,Overcast,340,2013-02-28 20:55:00
3:15 PM,35.6,26.6,70,30.05,10.0,NNW,8.1,-,N/A,,Overcast,330,2013-02-28 21:15:00
3:35 PM,35.6,26.6,70,30.05,10.0,North,9.2,-,N/A,,Overcast,350,2013-02-28 21:35:00
3:55 PM,35.6,26.6,70,30.06,10.0,NNW,8.1,-,N/A,,Overcast,340,2013-02-28 21:55:00
4:15 PM,35.6,26.6,70,30.06,10.0,North,9.2,-,N/A,,Overcast,350,2013-02-28 22:15:00
4:35 PM,35.6,26.6,70,30.06,10.0,NNW,13.8,-,N/A,,Overcast,330,2013-02-28 22:35:00
4:55 PM,33.8,26.6,75,30.07,10.0,NNW,10.4,-,N/A,,Overcast,330,2013-02-28 22:55:00
5:15 PM,33.8,26.6,75,30.07,10.0,NNW,12.7,-,N/A,,Overcast,330,2013-02-28 23:15:00
5:35 PM,33.8,26.6,75,30.08,10.0,NNW,9.2,-,N/A,Snow,Light Snow,330,2013-02-28 23:35:00
5:55 PM,33.8,26.6,75,30.08,7.0,NNW,10.4,-,N/A,Snow,Light Snow,330,2013-02-28 23:55:00
6:15 PM,33.8,26.6,75,30.09,10.0,NNW,9.2,-,N/A,,Overcast,330,2013-03-01 00:15:00
6:35 PM,33.8,26.6,75,30.09,10.0,NNW,10.4,-,N/A,Snow,Light Snow,330,2013-03-01 00:35:00
6:55 PM,32.0,26.6,80,30.09,10.0,NNW,9.2,-,N/A,,Overcast,330,2013-03-01 00:55:00
7:15 PM,32.0,26.6,80,30.09,10.0,NNW,10.4,-,N/A,,Overcast,330,2013-03-01 01:15:00
7:35 PM,32.0,26.6,80,30.10,7.0,NNW,9.2,-,N/A,Snow,Light Snow,340,2013-03-01 01:35:00
7:55 PM,32.0,26.6,80,30.10,7.0,North,11.5,-,N/A,Snow,Light Snow,350,2013-03-01 01:55:00
8:15 PM,30.2,26.6,86,30.10,7.0,North,9.2,-,N/A,Snow,Light Snow,350,2013-03-01 02:15:00
8:35 PM,30.2,26.6,86,30.10,7.0,North,6.9,-,N/A,Snow,Light Snow,360,2013-03-01 02:35:00
8:55 PM,30.2,24.8,80,30.10,10.0,North,5.8,-,N/A,Snow,Light Snow,360,2013-03-01 02:55:00
9:15 PM,30.2,24.8,80,30.11,10.0,North,5.8,-,N/A,Snow,Light Snow,350,2013-03-01 03:15:00
9:35 PM,30.2,24.8,80,30.11,10.0,North,4.6,-,N/A,,Overcast,350,2013-03-01 03:35:00
9:55 PM,30.2,24.8,80,30.11,7.0,North,5.8,-,N/A,Snow,Light Snow,350,2013-03-01 03:55:00
10:15 PM,30.2,24.8,80,30.11,4.0,North,5.8,-,N/A,Snow,Light Snow,350,2013-03-01 04:15:00
10:35 PM,30.2,24.8,80,30.12,3.0,NNW,5.8,-,N/A,Snow,Light Snow,340,2013-03-01 04:35:00
10:55 PM,30.2,24.8,80,30.12,7.0,North,5.8,-,N/A,Snow,Light Snow,350,2013-03-01 04:55:00
11:35 PM,30.2,24.8,80,30.11,7.0,North,4.6,-,N/A,Snow,Light Snow,350,2013-03-01 05:35:00
11:55 PM,28.4,24.8,86,30.11,5.0,North,5.8,-,N/A,Snow,Light Snow,350,2013-03-01 05:55:00